Location: Lecco
(45.8566°N, 9.3977°E)
Time: 02:38:38
(UTC+01:00)

Envisat - Pass Details

Date: 27 October 2019
Orbit: 764 x 766 km, 98.1° (Epoch: 17 November)

Event Time Altitude Azimuth Distance (km) Brightness Sun altitude
Rises 06:13:08 0° 26° (NNE) 3,241 6.5 -7.9°
Reaches altitude 10° 06:16:02 10° 43° (NE) 2,309 6.0 -7.4°
Maximum altitude 06:19:48 21° 91° (E) 1,684 6.1 -6.8°
Drops below altitude 10° 06:23:33 10° 139° (SE) 2,296 6.4 -6.1°
Sets 06:26:24 0° 156° (SSE) 3,216 6.8 -5.6°
